GFSSW_850_thetae_150.txt.gz
Theta_e
316 316 317 317 318 318 318 318 318 318 318 317 316 316 315 315 314 317 315 320 317 316 318 314 316 316 314 315 317 318 322 322 323 323 324 323 325 325 333 331 334 333 335 339 342
315 315 315 315 316 316 317 318 318 318 318 317 317 316 316 317 316 315 315 321 317 319 315 315 316 316 317 316 317 320 321 321 322 323 324 324 324 325 328 331 331 331 331 336 342
313 313 313 313 314 315 317 318 318 318 318 318 318 319 319 319 318 318 316 321 319 320 321 316 314 317 316 317 317 319 320 321 320 320 321 321 322 325 326 331 331 332 333 333 336
311 311 312 312 314 316 318 319 319 319 318 319 320 321 322 322 320 318 318 321 320 318 322 316 316 318 317 317 319 318 318 319 319 319 320 322 321 324 325 327 328 330 332 333 335
313 314 314 316 317 318 319 319 320 319 319 319 321 321 321 323 323 320 320 321 319 318 321 318 317 317 319 318 317 319 318 318 319 319 319 319 320 322 323 325 324 326 331 333 334
315 316 317 318 319 320 320 320 319 319 319 321 322 321 320 322 321 321 322 320 318 321 319 317 317 316 317 317 318 318 318 318 318 318 318 319 320 320 321 322 324 328 330 332 334
319 319 319 320 320 321 320 322 322 322 322 322 322 322 322 322 322 323 323 323 323 323 320 316 315 316 316 318 317 317 318 319 318 318 319 318 320 320 321 322 324 326 328 330 332
321 322 321 321 321 322 322 320 321 322 324 323 323 322 319 321 321 322 323 323 323 323 320 316 312 315 315 316 316 318 319 320 319 318 318 319 318 319 321 322 324 325 327 328 329
321 321 322 322 324 324 322 320 321 324 324 323 321 319 320 320 321 319 319 319 314 312 313 312 313 316 315 318 321 320 321 321 320 318 319 320 319 320 320 321 321 323 325 326 327
321 321 322 323 323 322 319 319 322 321 320 316 315 314 318 321 317 319 316 314 312 312 313 313 315 318 318 320 324 323 321 321 320 320 318 319 319 320 320 320 321 322 323 325 325
321 320 320 322 321 318 319 321 314 313 311 318 317 318 317 317 315 314 312 311 312 313 317 315 318 320 321 321 321 320 320 320 319 318 317 318 319 319 318 319 321 321 322 323 324
319 321 320 319 321 320 319 315 316 314 318 316 316 316 317 315 316 315 312 312 312 316 315 315 318 319 319 318 319 318 318 320 320 318 317 318 319 320 319 318 318 319 321 322 322
318 318 319 319 319 314 313 314 314 314 316 317 316 316 316 315 316 317 314 314 316 318 316 320 322 317 317 317 317 318 319 321 321 319 318 319 320 321 320 318 317 316 317 319 320
315 316 315 314 313 313 313 314 314 312 314 318 312 313 313 314 316 315 316 316 317 318 319 320 318 319 319 318 318 320 320 317 317 319 323 318 323 323 322 320 317 316 316 317 318
312 313 312 312 313 313 313 313 311 310 323 313 312 311 312 315 314 313 313 315 318 317 316 319 316 315 316 318 318 318 317 317 318 319 321 321 321 323 320 320 319 317 316 317 317
310 309 310 310 310 309 309 310 308 312 317 313 312 313 314 314 313 313 313 313 314 317 318 318 316 314 315 313 313 315 315 316 317 318 321 321 322 323 323 319 318 319 316 316 316
310 310 310 310 308 309 310 308 312 314 308 310 312 313 313 314 314 313 314 315 316 317 320 319 318 316 314 316 316 314 316 321 321 320 321 319 320 321 321 318 318 318 317 318 317
307 309 310 309 308 309 309 311 314 309 308 308 309 309 313 312 312 312 314 315 314 314 316 318 319 316 316 315 318 318 317 320 324 324 323 317 319 320 319 317 317 317 317 317 317
310 310 309 309 307 309 310 314 307 308 308 308 308 310 310 310 312 312 313 312 313 313 315 317 316 314 314 313 315 316 317 316 319 320 321 320 320 320 318 318 318 317 317 318 317
307 308 307 306 306 308 309 310 309 307 307 307 309 309 310 310 310 311 313 314 313 313 313 314 315 313 313 312 313 315 315 319 320 323 322 319 320 320 319 318 318 318 316 316 317
306 305 305 306 306 307 308 309 308 307 307 308 309 309 309 309 309 309 311 312 311 311 312 313 315 314 313 314 314 314 314 314 316 319 321 318 317 317 317 318 317 316 315 315 315
305 305 304 305 304 302 307 308 306 307 306 307 308 308 308 308 308 307 308 310 311 310 310 311 313 313 312 312 310 311 312 314 317 317 318 318 317 315 316 314 311 312 312 312 313
301 300 301 304 306 307 303 306 306 307 307 308 308 308 308 308 308 308 308 310 310 309 310 310 310 310 308 310 311 312 309 310 311 313 314 315 314 313 312 312 310 312 312 312 313
299 302 299 300 299 306 306 306 305 304 306 306 307 307 308 308 307 308 308 308 308 308 307 307 309 310 310 308 309 309 308 309 310 312 310 310 309 309 309 310 310 312 312 312 313
294 300 300 304 302 304 304 303 305 304 303 304 305 306 306 305 305 306 306 306 306 307 307 309 310 310 310 308 308 308 309 309 309 310 311 310 309 309 310 311 310 311 310 311 311
295 298 297 299 301 301 300 301 301 300 301 301 301 302 303 303 303 303 305 305 305 305 308 307 310 306 308 308 308 308 308 308 309 309 309 310 310 310 309 309 309 309 309 311 310
292 295 298 297 300 301 300 299 299 299 298 299 300 301 301 301 301 300 299 300 301 303 304 305 306 306 307 306 308 309 308 309 309 309 310 313 311 310 310 309 309 309 309 310 311

GFSSW_850_thetae_153.txt.gz
Theta_e
318 318 318 318 318 318 319 318 318 318 318 317 317 316 315 314 314 319 320 318 319 319 318 319 319 318 318 317 318 320 323 324 325 326 326 326 327 327 333 333 337 339 338 343 342
316 316 316 316 317 317 317 317 317 318 318 317 317 316 315 315 314 318 318 317 320 320 320 319 319 318 319 319 319 321 323 324 324 325 324 324 325 326 329 334 333 335 335 344 340
314 314 315 315 315 315 315 316 316 318 318 317 317 316 316 316 319 320 318 320 320 319 320 320 319 319 319 319 320 320 321 322 322 322 322 323 323 324 327 330 331 333 337 339 339
313 313 313 313 313 313 314 315 317 318 318 318 318 317 317 318 320 320 317 318 319 319 319 320 321 321 321 320 320 321 320 319 320 321 321 322 322 323 325 327 328 330 334 338 338
311 311 311 311 312 313 314 317 318 319 318 318 319 319 320 322 321 321 321 319 321 318 320 321 321 321 321 320 320 320 320 319 319 320 320 320 321 323 323 324 327 328 335 337 338
311 311 312 313 315 316 318 319 319 319 320 320 320 322 322 323 320 322 321 321 318 320 323 323 322 321 321 322 322 321 320 320 320 320 319 320 320 320 322 322 325 327 329 334 337
314 315 315 317 318 319 320 321 321 321 322 321 323 323 322 323 323 324 322 323 323 321 323 324 320 320 322 322 321 321 321 321 321 320 320 319 320 321 320 322 324 326 328 332 334
318 318 318 319 320 321 322 321 322 321 320 324 324 323 321 322 323 323 322 322 323 323 323 322 321 318 321 321 321 321 322 323 322 322 321 320 320 322 320 320 323 324 327 329 331
321 321 321 321 322 322 321 322 322 321 321 324 323 321 323 322 321 321 320 322 322 323 319 319 318 318 321 322 324 324 323 323 324 322 321 321 321 322 321 321 322 323 325 327 330
318 318 321 322 322 322 323 323 323 320 321 320 317 318 321 322 322 319 317 320 315 315 316 315 317 321 322 323 326 326 326 325 324 323 323 322 322 322 321 322 322 322 323 325 327
319 319 321 320 321 321 323 321 317 316 314 320 321 322 321 320 317 318 316 316 317 317 322 318 321 324 324 325 325 325 325 325 324 324 323 322 322 323 322 322 322 322 321 322 324
319 318 321 320 321 321 321 320 317 315 319 321 319 320 320 319 319 319 315 316 317 320 321 323 322 323 324 324 323 323 324 325 324 324 324 323 323 324 324 323 321 321 322 322 323
319 319 322 320 319 321 319 317 317 318 317 321 321 320 320 319 320 320 318 318 319 320 321 322 324 323 322 322 323 324 324 325 325 325 324 324 325 325 325 324 323 321 320 321 322
320 321 320 319 319 318 317 316 316 316 318 320 318 317 318 318 318 319 319 319 320 321 321 322 322 322 324 324 325 325 323 324 324 323 325 325 329 326 325 325 324 322 321 320 320
319 319 318 318 316 315 315 315 315 314 325 320 316 314 315 317 317 315 317 318 321 322 319 323 322 320 321 323 323 324 322 321 322 323 324 325 326 325 324 324 324 322 320 319 319
317 316 314 314 314 315 314 314 311 316 322 317 315 314 315 316 317 315 315 316 318 320 322 321 320 318 318 318 317 319 319 320 321 322 326 324 324 325 325 322 321 321 320 319 320
313 314 313 313 312 312 311 310 315 321 315 316 315 315 316 317 317 316 318 318 319 321 323 322 321 321 319 318 318 318 320 323 325 324 324 322 323 324 323 321 320 321 320 319 319
310 310 311 312 312 311 311 314 318 317 316 312 313 315 315 315 315 316 316 318 318 319 320 322 323 320 321 320 320 321 321 322 325 324 324 324 323 323 322 320 319 319 319 319 320
310 310 310 309 310 311 312 316 315 314 314 312 312 313 314 314 314 315 316 317 317 316 318 319 318 317 317 318 318 319 320 319 321 323 324 322 323 323 322 321 319 318 318 318 318
310 309 310 309 309 311 313 314 312 310 310 311 312 312 313 313 314 315 315 314 314 314 315 317 318 316 316 314 316 317 318 321 321 323 322 320 320 320 321 320 319 318 315 314 315
308 307 308 309 308 310 311 313 311 309 309 310 311 311 312 313 313 314 315 315 314 313 314 315 316 316 315 315 316 316 317 317 318 321 322 321 320 320 318 317 317 315 312 313 313
307 303 305 306 305 301 312 310 308 310 308 310 311 310 311 311 312 311 312 313 311 311 313 313 314 316 317 314 314 313 314 316 319 318 319 320 321 318 316 315 314 312 310 313 313
305 302 302 304 307 308 307 308 308 309 309 309 310 310 310 310 310 310 309 311 310 310 311 311 311 313 311 311 311 311 312 312 313 314 315 318 316 314 313 313 311 310 310 312 313
303 305 300 301 301 308 307 308 309 308 309 309 309 309 310 310 310 310 309 311 309 309 307 307 309 310 310 310 310 312 312 311 311 314 314 313 312 311 311 310 310 309 310 311 312
302 304 304 304 303 307 308 308 308 310 308 308 309 309 310 310 309 309 309 310 308 308 307 309 311 310 310 309 309 308 308 309 310 310 312 310 310 310 310 310 310 310 310 310 310
297 302 301 304 304 306 305 308 308 306 306 308 307 308 308 307 306 306 307 307 308 308 308 310 310 309 309 308 309 308 308 308 308 308 309 309 309 310 309 309 310 310 309 310 310
296 299 302 302 305 306 306 305 304 302 301 302 304 303 303 304 304 304 304 304 305 305 307 307 308 307 307 306 307 310 309 308 308 308 308 312 310 310 310 310 310 309 309 310 310

GFSSW_850_thetae_156.txt.gz
Theta_e
317 317 318 318 318 319 319 319 319 318 318 318 317 317 316 315 314 314 319 320 319 317 320 320 321 320 319 319 319 319 321 322 324 325 326 327 326 326 326 332 336 339 340 345 344
317 317 317 317 317 317 318 318 317 317 317 317 317 316 315 315 314 318 320 319 319 319 319 321 321 320 320 320 320 320 322 323 324 324 325 325 325 325 326 329 335 337 344 346 344
317 316 316 316 316 316 316 316 316 316 317 317 317 316 315 315 318 319 318 318 318 319 318 320 321 321 321 321 320 321 321 322 322 322 322 322 322 324 325 327 330 334 341 344 343
316 316 315 315 314 314 314 314 315 317 318 318 317 317 315 315 320 321 320 317 317 317 317 320 321 321 322 322 322 321 321 321 321 319 320 321 322 322 323 324 326 328 334 339 341
314 314 314 314 313 313 312 313 314 317 319 319 318 317 316 321 321 320 320 321 317 319 319 321 321 321 322 321 321 321 320 320 320 319 320 321 321 321 322 323 324 327 332 341 340
310 311 312 312 312 311 312 314 317 319 319 319 321 321 323 323 317 321 322 321 320 319 321 323 324 323 322 322 322 322 322 322 321 321 321 321 320 320 321 321 322 324 333 339 339
309 309 310 311 311 313 315 317 319 320 320 321 322 322 322 322 318 323 324 323 322 324 323 323 324 323 321 323 323 322 322 322 322 321 321 321 321 320 320 320 321 322 325 331 337
311 311 312 313 315 317 319 320 321 321 320 321 319 323 321 319 319 323 324 324 324 325 324 324 324 324 321 321 322 323 323 323 323 322 322 322 322 321 321 321 320 322 324 326 330
313 313 314 315 317 320 321 321 322 322 322 322 320 322 322 323 323 323 323 323 323 324 324 324 323 322 321 322 323 323 324 324 325 324 324 322 322 322 321 321 322 321 323 324 328
315 315 318 319 320 322 322 322 321 323 322 321 320 318 320 323 323 322 320 320 323 321 321 319 320 322 322 323 326 325 326 326 326 325 325 323 323 323 322 322 322 322 323 324 326
317 317 320 322 322 323 322 322 322 319 317 320 322 321 323 322 320 320 319 319 319 318 320 319 321 323 324 325 324 325 326 326 326 326 326 325 325 324 323 323 323 323 323 323 323
318 318 320 319 319 322 322 321 320 318 321 320 320 321 321 322 321 321 319 319 320 322 321 323 323 323 323 324 325 325 326 325 325 325 326 325 325 325 324 324 324 324 323 323 322
319 318 318 319 321 321 320 321 319 318 319 320 321 322 321 322 322 322 321 319 320 321 322 324 324 324 324 323 325 324 324 325 326 325 325 325 326 325 325 325 325 324 324 323 322
321 320 320 319 321 319 319 320 319 317 320 320 321 322 322 321 322 321 321 322 322 322 322 323 323 323 323 323 324 325 325 326 325 325 327 325 327 325 325 326 326 325 325 324 322
321 320 320 319 321 319 320 318 317 317 326 321 321 318 320 321 319 318 319 321 322 323 322 323 323 323 324 323 323 325 324 325 323 323 324 324 325 325 326 325 323 322 321 321 320
321 321 320 318 319 319 318 316 316 316 323 322 317 317 319 319 319 317 317 318 320 321 322 322 322 322 322 321 320 319 321 322 322 322 326 324 324 325 324 322 322 321 321 321 321
321 321 319 316 316 317 316 314 315 321 320 320 318 317 318 319 319 318 318 319 321 321 322 322 322 322 321 321 320 318 320 323 324 326 326 323 324 325 323 322 321 321 320 320 320
320 318 316 314 315 315 314 314 319 319 319 315 318 317 318 319 318 318 318 320 319 319 320 321 324 322 322 322 322 320 320 323 324 327 325 324 325 324 323 321 320 320 318 318 318
315 313 314 313 313 313 314 314 318 318 318 317 315 317 318 318 317 318 318 319 319 319 319 319 320 319 319 319 322 322 321 321 325 324 326 323 322 321 321 322 320 319 317 314 314
311 311 312 311 312 311 313 315 317 316 313 317 316 315 317 316 316 316 318 317 318 316 317 318 319 318 317 316 317 320 318 323 323 325 324 320 320 321 319 319 318 319 314 312 313
310 310 309 311 312 313 312 314 315 313 311 313 315 315 314 315 315 315 316 316 316 315 315 317 318 317 317 316 316 316 318 319 320 322 323 321 320 318 318 317 317 317 313 311 313
307 303 308 308 309 303 311 313 313 312 310 311 311 313 313 313 314 314 315 316 315 314 315 315 317 317 317 316 316 317 318 317 322 320 322 321 320 319 318 315 313 312 311 310 313
304 301 303 307 308 307 309 312 313 312 311 310 310 311 312 312 313 313 315 313 312 312 312 313 313 314 313 313 314 314 314 314 316 319 318 319 319 315 314 314 312 311 310 310 311
304 304 300 301 301 307 309 311 311 310 310 309 309 309 311 311 311 311 313 312 310 310 306 309 311 312 313 311 310 310 311 311 313 317 315 315 312 313 312 312 312 310 309 310 310
304 306 304 304 302 305 307 309 310 310 310 309 310 311 310 310 310 310 311 311 310 308 309 309 312 311 310 309 309 308 308 309 310 311 313 312 311 311 311 311 310 309 309 309 310
303 305 304 306 305 306 306 308 308 309 310 310 311 311 310 310 310 311 310 311 311 310 309 309 311 311 309 308 308 308 307 307 307 307 309 309 309 310 309 309 309 309 309 310 309
301 302 304 305 306 306 307 307 308 308 306 309 309 308 310 309 308 306 306 308 309 310 309 309 310 309 308 307 308 309 308 308 307 308 308 309 310 310 310 311 310 310 309 309 311

GFSSW_850_thetae_162.txt.gz
Theta_e
315 316 317 317 318 318 319 319 319 319 319 318 318 317 317 316 316 314 315 317 318 318 318 317 315 319 319 320 319 318 312 313 317 318 318 319 317 320 321 323 340 343 343 343 346
314 315 316 317 317 318 318 318 319 318 318 318 317 317 316 315 315 318 318 318 318 318 318 317 318 320 320 320 320 316 311 313 315 317 317 317 318 318 320 320 340 341 342 344 346
314 314 315 316 317 317 318 318 318 317 317 316 316 316 315 314 314 319 318 318 318 316 317 316 319 320 320 320 320 316 313 314 316 318 319 317 317 319 318 319 323 334 343 346 345
316 316 315 316 317 317 317 317 316 316 315 315 314 314 314 315 312 320 319 315 317 317 315 314 320 320 319 318 320 318 318 318 318 320 319 316 318 317 318 319 320 320 335 344 346
316 317 317 317 317 317 317 316 315 314 314 314 314 315 315 317 314 313 313 317 320 319 317 319 321 323 321 322 320 319 318 320 321 321 321 320 318 317 318 320 320 319 330 343 345
313 315 316 316 316 316 315 315 314 313 313 313 316 316 318 320 313 314 315 320 320 320 319 320 322 323 324 323 320 319 319 319 321 321 321 320 318 318 320 320 320 320 324 333 342
308 310 313 315 315 315 314 314 313 312 312 315 318 318 320 315 312 313 316 319 319 321 321 321 323 323 323 322 322 320 319 319 319 321 320 321 317 317 320 320 320 320 319 325 335
311 309 308 311 313 313 313 312 311 312 314 317 319 319 319 312 313 313 316 314 317 323 323 322 323 324 324 323 321 319 319 320 319 320 321 319 320 318 321 320 320 320 320 319 330
315 312 309 308 310 311 311 311 312 314 318 320 320 320 317 316 319 321 323 321 317 318 323 324 324 323 323 321 320 319 320 320 320 320 320 318 320 319 323 318 318 319 320 318 322
321 315 312 309 309 310 310 312 314 318 319 319 319 317 316 316 318 322 323 320 322 322 323 323 323 318 317 319 323 321 321 319 320 319 321 319 319 319 322 322 321 322 321 321 320
324 320 315 312 310 310 312 317 318 318 318 318 317 315 317 322 321 322 322 319 320 321 321 321 320 320 321 319 321 321 321 321 320 320 321 320 319 319 320 321 320 319 320 321 321
325 323 317 314 312 312 315 318 317 317 317 318 316 318 316 319 320 321 321 319 320 319 316 316 320 319 319 319 320 321 321 321 320 320 323 320 319 319 319 319 319 318 320 320 320
324 324 319 316 314 314 317 317 318 318 318 319 319 320 320 321 320 320 321 320 318 318 316 316 318 318 318 319 320 320 321 321 321 322 321 320 321 321 320 319 319 318 319 321 321
321 323 320 318 315 317 319 320 318 320 319 318 319 320 320 321 321 321 322 319 317 318 318 318 319 319 320 321 321 322 320 321 321 322 324 319 323 320 319 319 318 317 317 319 323
320 322 323 319 318 317 317 318 320 319 324 318 319 320 321 321 321 321 322 321 321 320 318 319 320 319 320 320 320 320 320 320 320 320 320 320 319 318 319 320 318 317 317 319 322
320 322 323 319 318 318 316 319 319 316 318 319 319 318 321 321 321 318 321 322 322 320 320 319 320 319 319 319 318 317 317 316 316 318 320 320 320 318 317 319 318 317 317 317 322
320 321 322 321 319 318 318 318 315 318 318 320 318 319 321 322 322 316 318 318 320 323 323 321 321 319 319 320 317 315 316 318 319 320 319 319 320 319 318 317 316 315 317 315 316
319 321 321 321 320 318 318 314 317 316 319 320 318 318 320 322 322 316 316 317 315 317 317 323 322 319 318 319 320 315 316 318 322 321 321 319 321 321 317 316 312 314 314 314 314
318 320 320 319 321 319 318 317 319 317 317 319 318 319 319 319 322 321 317 316 317 315 318 318 319 317 317 318 319 318 316 316 319 318 313 319 320 320 320 319 314 314 312 313 314
317 317 317 318 319 319 319 320 317 317 317 318 319 318 320 321 318 322 319 317 317 316 315 316 318 316 315 316 315 319 317 321 319 321 323 320 319 319 317 316 314 311 311 312 313
317 314 314 316 316 317 316 311 316 316 317 318 320 317 317 318 319 320 318 316 316 315 315 314 315 315 315 315 314 315 318 319 320 317 320 318 315 315 314 312 312 312 311 310 313
314 309 311 314 314 305 313 315 315 316 314 315 313 318 315 316 317 318 318 317 315 314 315 313 314 315 315 313 313 315 315 317 320 319 316 312 314 314 311 309 311 311 311 309 312
311 304 308 309 314 307 309 313 314 315 313 313 312 311 315 313 314 317 315 313 313 312 313 311 311 311 313 314 312 312 312 312 314 312 315 320 314 312 309 309 310 309 309 308 308
307 304 302 305 303 308 311 314 313 312 312 311 310 309 309 310 312 316 315 314 310 308 309 310 309 311 315 313 309 309 308 308 312 309 312 313 311 310 309 309 309 308 307 307 307
303 301 303 304 302 307 309 310 311 311 310 310 309 309 310 310 312 314 313 311 309 308 308 307 307 307 309 309 309 308 308 307 308 309 311 308 310 308 306 306 306 307 306 307 307
302 301 302 301 303 305 306 306 310 310 309 310 310 310 308 308 311 312 312 310 309 308 308 307 308 304 307 308 308 307 306 306 306 307 307 305 305 304 305 305 305 306 306 307 307
302 303 304 301 302 305 305 306 307 307 307 309 309 306 304 303 307 309 309 310 309 308 308 308 308 308 309 307 306 305 305 306 306 306 306 305 305 305 304 305 307 308 309 307 308